This is the latest recevied weather packets stored in our database for station/object N6DZK. If no packets are shown the sender has not sent any weather packets the latest 10 day(s).
| Time | Temp. | Humidity | Pressure | Rain* | Wind** | Luminosity | Snow |
|---|---|---|---|---|---|---|---|
| 1777839760 | 20° C | 53% | 1013.6 hPa | 0 mm | - | 571 W/m² | - |
| 1777839458 | 20° C | 53% | 1013.4 hPa | 0 mm | - | 519 W/m² | - |
| 1777839155 | 19.44° C | 52% | 1013.7 hPa | 0 mm | - | 643 W/m² | - |
| 1777838852 | 19.44° C | 54% | 1013.7 hPa | 0 mm | - | 479 W/m² | - |
| 1777838548 | 19.44° C | 55% | 1013.6 hPa | 0 mm | - | 402 W/m² | - |
| 1777838245 | 18.89° C | 54% | 1013.5 hPa | 0 mm | - | 374 W/m² | - |
| 1777837942 | 19.44° C | 53% | 1013.6 hPa | 0 mm | - | 333 W/m² | - |
| 1777837639 | 19.44° C | 53% | 1013.6 hPa | 0 mm | - | 337 W/m² | - |
| 1777837335 | 19.44° C | 52% | 1013.5 hPa | 0 mm | - | 428 W/m² | - |
| 1777837031 | 20° C | 52% | 1013.4 hPa | 0 mm | - | 424 W/m² | - |
| 1777836728 | 19.44° C | 52% | 1013.6 hPa | 0 mm | - | 426 W/m² | - |
| 1777836423 | 20° C | 52% | 1013.5 hPa | 0 mm | - | 471 W/m² | - |
| 1777836119 | 19.44° C | 52% | 1013.5 hPa | 0 mm | - | 456 W/m² | - |
| 1777835815 | 19.44° C | 54% | 1013.7 hPa | 0 mm | - | 454 W/m² | - |
| 1777835512 | 19.44° C | 53% | 1013.6 hPa | 0 mm | - | 372 W/m² | - |
| 1777835209 | 19.44° C | 55% | 1013.7 hPa | 0 mm | - | 369 W/m² | - |
| 1777834906 | 19.44° C | 56% | 1013.9 hPa | 0 mm | - | 1259 W/m² | - |
| 1777834603 | 18.89° C | 56% | 1013.8 hPa | 0 mm | - | 532 W/m² | - |
| 1777834298 | 18.89° C | 56% | 1013.7 hPa | 0 mm | - | 388 W/m² | - |
| 1777833993 | 18.89° C | 56% | 1013.8 hPa | 0 mm | - | 327 W/m² | - |
| 1777833690 | 19.44° C | 57% | 1013.7 hPa | 0 mm | - | 333 W/m² | - |
| 1777833387 | 19.44° C | 56% | 1013.6 hPa | 0 mm | - | 377 W/m² | - |
| 1777833084 | 19.44° C | 54% | 1013.8 hPa | 0 mm | - | 421 W/m² | - |
| 1777832782 | 19.44° C | 56% | 1013.9 hPa | 0 mm | - | 852 W/m² | - |
| 1777832480 | 18.89° C | 57% | 1013.8 hPa | 0 mm | - | 470 W/m² | - |
* Rain latest hour (hover to see other rain measurements)
** Current wind speed in m/s (hover to see current wind gust speed)